Flag for United Kingdom Weather past 2 weeks in Manchester, England, United Kingdom

Now
39 °F

Scattered showers. Broken clouds.


Feels Like: 30 °F
Forecast: 37 / 45 °F
Wind: 17 mph from Northwest

Location: Manchester Airport

Current Time: Mar 4, 2015 at 7:47:08 AM

Latest Report: Mar 4, 2015 at 6:50 AM


Visibility: 6 mi

Pressure: 30.21 "Hg

Humidity: 87%

Dew point: 36 °F

Location of ManchesterLocation

Historic Weather in Manchester — Graph

°F

Manchester temperature yesterday

Maximum temperature yesterday: 45 °F (at 12:50 PM)
Minimum temperature yesterday: 32 °F (at 12:50 AM)
Average temperature yesterday: 39 °F

Past Weeks' High & Low Weather Summary

 TemperatureHumidityPressure
High52 °F (Feb 28, 12:50 PM)100% (Feb 17, 6:20 AM)30.66 "Hg (Feb 17, 6:20 AM)
Low28 °F (Feb 17, 6:20 AM)46% (Mar 3, 1:20 PM)29.03 "Hg (Feb 23, 4:20 PM)
Average41 °F83%29.76 "Hg
* Reported Feb 17 6:20 AM — Mar 4 6:20 AM, Manchester, Weather by CustomWeather, © 2015

Note: Actual official high and low records may vary slightly from our data, if they occured in-between our weather recording intervals... More about our weather records

Advertising

Manchester weather history for previous 24 hours

 ConditionsComfort  
Time TempWeatherWind HumidityBarometerVisibility
6:20 AM
Wed, Mar 4
39 °FLight rain. Partly cloudy.17 mph87%30.18 "Hg6 mi
5:50 AM39 °FPartly cloudy.16 mph87%30.18 "HgN/A
5:20 AM39 °FPartly cloudy.16 mph87%30.15 "HgN/A
4:50 AM39 °FRain. Partly cloudy.18 mph87%30.15 "Hg5 mi
4:20 AM39 °FLight rain. Partly cloudy.18 mph81%30.12 "HgN/A
3:50 AM39 °FMostly cloudy.16 mph81%30.12 "HgN/A
3:20 AM39 °FPassing clouds.16 mph81%30.12 "HgN/A
2:50 AM39 °FLight rain. Partly cloudy.18 mph81%30.09 "HgN/A
2:20 AM39 °FPassing clouds.17 mph81%30.09 "HgN/A
1:50 AM39 °FPassing clouds.16 mph87%30.09 "HgN/A
1:20 AM39 °FLight rain. Passing clouds.21 mph81%30.09 "HgN/A
12:50 AM41 °FOvercast.17 mph76%30.09 "HgN/A
12:20 AM41 °FPartly cloudy.15 mph76%30.07 "HgN/A
11:50 PM
Tue, Mar 3
41 °FPartly cloudy.16 mph76%30.07 "HgN/A
11:20 PM39 °FPartly cloudy.13 mph75%30.07 "HgN/A
10:50 PM39 °FPartly cloudy.13 mph75%30.07 "HgN/A
10:20 PM39 °FPassing clouds.12 mph75%30.04 "HgN/A
9:50 PM39 °FPassing clouds.14 mph75%30.01 "HgN/A
9:20 PM39 °FPassing clouds.14 mph75%30.01 "HgN/A
8:50 PM39 °FPassing clouds.14 mph75%29.98 "HgN/A
8:20 PM39 °FPassing clouds.17 mph81%29.98 "HgN/A
7:50 PM39 °FPassing clouds.18 mph75%29.98 "HgN/A
7:20 PM39 °FPassing clouds.20 mph75%29.95 "HgN/A
6:50 PM41 °FLight rain. Passing clouds.18 mph61%29.95 "HgN/A
6:20 PM41 °FPassing clouds.15 mph61%29.95 "HgN/A
5:50 PM41 °FClear.13 mph61%29.92 "Hg10 mi
5:20 PM41 °FScattered clouds.16 mph57%29.92 "HgN/A
4:50 PM41 °FPartly sunny.16 mph57%29.92 "HgN/A
4:20 PM41 °FSunny.15 mph53%29.92 "Hg10 mi
3:50 PM41 °FSunny.18 mph53%29.92 "Hg10 mi
3:20 PM43 °FPassing clouds.21 mph53%29.89 "HgN/A
2:50 PM45 °FPassing clouds.22 mph46%29.89 "HgN/A
2:20 PM45 °FPassing clouds.20 mph46%29.89 "HgN/A
1:50 PM45 °FPassing clouds.21 mph46%29.89 "HgN/A
1:20 PM45 °FSunny.24 mph46%29.89 "Hg10 mi
12:50 PM45 °FSunny.22 mph49%29.89 "Hg10 mi
12:20 PM41 °FScattered clouds.18 mph57%29.89 "HgN/A
11:50 AM41 °FScattered clouds.20 mph57%29.86 "HgN/A
11:20 AM43 °FScattered clouds.18 mph53%29.86 "HgN/A
10:50 AM43 °FScattered clouds.18 mph53%29.86 "HgN/A
10:20 AM39 °FScattered clouds.17 mph65%29.86 "HgN/A
9:50 AM41 °FBroken clouds.10 mph76%29.86 "HgN/A
9:20 AM37 °FPassing clouds.12 mph87%29.83 "HgN/A
8:50 AM37 °FPassing clouds.12 mph87%29.83 "HgN/A
8:20 AM36 °FPassing clouds.9 mph93%29.83 "HgN/A
7:50 AM34 °FPassing clouds.8 mph100%29.80 "HgN/A
7:20 AM34 °FPassing clouds.12 mph100%29.80 "HgN/A
Weather by CustomWeather, © 2015

See weather overviewHow to use our weather pages